RH
42 44 44 40 34 50 61 42 37 27 35 33 35 34 36 33 34 35 37 38 40 40 40 40 53 74 70 65 67 64 61 57
38 33 23 27 35 55 54 53 25 28 37 38 40 42 43 46 46 37 39 40 41 40 38 40 38 59 64 46 68 71 73 66
32 33 35 43 50 51 43 34 30 31 36 33 36 40 48 40 43 40 40 38 34 25 24 31 49 55 61 64 70 72 72 73
31 36 35 32 31 34 35 32 32 34 40 49 49 49 48 48 47 42 33 30 22 17 16 15 16 31 54 61 65 69 64 68
32 35 40 30 30 32 34 38 43 43 42 44 42 52 51 43 47 52 37 28 14 11 10 10 12 22 54 61 57 65 69 63
42 45 47 52 51 45 48 56 48 43 43 45 51 53 58 60 58 54 44 40 30 17 13 14 23 37 57 45 51 76 81 75
47 50 51 54 58 48 46 51 55 45 48 47 42 55 67 61 54 48 45 48 47 53 36 30 47 55 71 73 78 82 89 96
46 48 49 55 54 45 45 46 56 60 54 54 51 48 58 59 57 55 56 52 52 61 44 79 77 84 86 91 96 99 98 99
47 47 49 56 53 46 46 51 59 59 53 48 37 57 67 66 64 59 52 57 56 56 88 90 90 91 94 97 100 99 99 100
45 47 51 58 66 67 60 54 57 60 62 68 51 71 73 55 42 43 66 63 76 91 98 92 83 89 92 98 100 91 94 97
44 46 49 59 62 67 63 66 70 74 79 71 71 62 57 50 65 77 81 88 95 92 86 86 90 96 100 91 86 92 96 84
48 51 53 58 67 71 74 77 80 80 74 73 74 72 74 76 82 87 93 95 90 86 88 94 100 99 94 94 94 97 84 78
48 53 59 67 72 75 75 78 69 54 57 75 80 81 81 83 90 98 100 100 99 98 99 96 96 94 98 98 96 85 71 64
49 55 65 72 72 74 67 57 61 78 73 73 75 85 87 92 99 100 100 99 98 98 99 99 99 98 98 89 78 71 71 72
60 72 73 73 74 66 57 82 82 70 75 77 79 86 99 92 86 98 97 96 94 90 84 83 82 74 70 66 65 70 72 68
71 73 76 73 68 70 78 83 71 65 84 79 85 87 85 80 77 74 72 68 58 59 58 60 63 63 56 63 68 71 73 75
81 81 64 56 60 75 85 68 71 88 81 83 81 81 76 70 67 61 56 55 58 60 61 63 67 66 74 66 64 86 80 74
68 73 53 60 70 87 68 65 75 85 81 79 81 83 68 63 56 51 55 59 63 66 68 75 78 79 80 68 58 67 84 83
65 59 55 63 72 71 68 66 71 76 78 78 85 77 66 58 55 57 60 60 64 67 73 79 82 79 82 70 63 74 94 93
Wind_Speed
13 11 12 12 10 11 12 10 7 10 8 5 6 6 7 11 14 16 18 19 20 22 24 26 26 22 24 24 25 25 25 26
8 11 11 9 8 11 7 8 12 12 8 6 7 8 9 8 10 18 21 24 28 30 31 29 28 24 26 31 28 28 29 28
10 9 9 8 7 8 10 11 12 12 9 12 11 10 8 12 14 22 26 31 31 28 27 27 26 25 25 26 27 28 29 28
12 11 10 8 7 7 7 8 8 6 4 6 7 9 11 12 19 23 28 30 30 29 29 30 31 29 25 25 26 27 32 31
8 6 5 4 4 4 3 1 3 6 11 14 20 14 16 23 21 19 28 30 32 33 34 34 34 32 27 24 24 26 27 34
8 7 6 7 6 6 6 7 10 15 18 23 19 17 15 15 18 22 23 23 29 32 35 35 33 31 26 30 27 21 22 26
6 7 7 8 7 6 9 10 13 18 21 27 25 21 21 22 23 25 24 27 26 25 31 29 28 25 18 16 15 13 11 8
5 4 4 4 4 9 15 21 14 20 34 33 30 27 20 21 24 25 29 28 27 25 28 17 13 12 9 7 8 7 9 11
6 4 5 6 10 16 21 18 13 20 25 22 21 19 20 23 25 31 32 29 27 25 14 11 11 11 11 10 9 6 7 8
6 8 9 9 8 11 16 21 22 20 19 17 21 22 25 31 35 33 24 25 19 15 13 11 7 5 4 5 7 11 6 9
10 13 13 12 13 15 20 21 16 15 14 17 19 26 27 30 27 23 20 16 13 11 8 7 7 8 10 14 22 20 13 15
14 17 16 15 12 11 12 13 14 13 13 18 20 21 20 20 19 17 15 14 12 10 10 11 12 17 26 25 14 11 11 11
16 16 15 12 9 10 12 13 14 17 20 19 18 17 17 17 17 15 13 13 11 11 13 18 24 18 15 14 14 15 15 16
19 17 15 11 11 13 21 19 17 16 19 16 15 16 18 16 16 17 15 16 16 18 18 18 16 17 18 17 16 16 19 20
16 14 12 11 19 19 16 12 15 21 17 17 17 17 15 16 18 15 16 15 16 17 20 20 19 19 19 19 18 20 20 20
16 14 14 18 14 12 12 13 18 21 14 17 12 10 11 14 15 15 15 16 18 18 18 18 18 19 19 21 18 18 20 20
15 17 12 13 13 16 14 17 17 13 16 11 9 11 13 14 14 17 18 18 17 17 18 18 19 18 21 22 22 19 20 22
18 14 16 17 19 16 18 20 14 12 14 10 12 13 13 14 16 17 17 18 18 19 19 18 18 17 23 26 27 25 23 23
17 16 20 22 20 19 20 19 15 15 14 14 13 13 13 15 16 17 18 19 20 19 19 18 20 20 25 28 27 25 21 23
Wind_Direction
205 221 238 239 227 200 187 186 207 215 224 266 273 289 308 312 311 311 316 320 319 313 307 304 301 291 288 284 279 277 272 273
193 221 233 220 209 180 178 188 220 222 242 274 281 291 301 313 314 310 319 319 318 312 307 303 300 293 289 292 284 276 274 265
100 95 104 116 143 162 194 208 227 238 274 295 304 317 326 316 318 317 316 313 312 313 310 307 301 296 291 286 284 281 273 265
84 85 96 118 152 177 207 236 255 278 337 6 352 337 334 322 322 318 313 312 314 317 315 312 309 303 294 288 283 278 278 271
75 78 96 152 184 206 221 179 55 10 359 351 344 345 333 326 323 319 318 316 317 317 314 310 306 301 295 291 288 280 277 274
70 76 85 93 104 108 76 39 10 354 347 343 342 335 333 329 320 316 317 316 315 314 312 310 306 302 299 300 295 287 276 270
75 90 91 87 80 46 10 1 345 340 344 339 336 337 328 322 319 321 320 319 317 315 311 307 301 301 305 306 303 307 307 291
86 88 78 68 13 339 336 331 343 337 330 327 318 314 322 321 323 322 321 319 318 316 311 305 300 309 317 322 320 319 321 298
61 26 343 332 325 321 324 325 328 312 310 311 314 318 320 322 321 322 321 319 316 307 302 297 296 296 290 290 286 297 328 313
1 343 326 308 311 309 307 303 311 314 313 314 315 319 321 321 321 322 317 315 309 301 297 298 302 312 311 293 288 276 321 339
326 324 324 313 297 298 297 304 316 313 313 315 316 316 318 319 323 322 319 315 309 298 303 292 294 301 303 300 292 296 311 314
318 321 317 314 304 300 311 316 311 311 318 318 318 321 323 324 323 321 318 314 306 294 295 295 297 291 296 308 314 299 290 292
317 320 321 315 306 309 318 320 316 320 318 322 323 326 323 323 321 321 315 312 303 295 281 279 299 316 310 299 289 285 283 287
321 317 316 311 311 314 318 315 315 321 325 324 321 322 316 319 319 315 304 301 292 303 317 312 311 309 305 301 293 288 286 288
321 312 303 300 307 315 309 308 317 323 322 324 320 317 312 327 331 332 330 323 316 311 309 307 308 307 305 299 294 292 290 290
325 313 311 311 304 301 306 318 323 322 317 320 319 328 331 324 319 318 318 316 316 314 314 313 311 310 303 290 303 295 294 293
322 321 316 308 305 310 318 322 316 309 317 314 318 323 325 322 322 322 319 320 321 322 320 318 315 312 295 303 304 300 293 290
328 313 311 309 313 308 315 318 310 310 313 304 313 315 321 323 322 322 322 323 323 322 320 319 316 313 298 301 302 300 294 291
318 314 312 314 307 304 311 318 310 303 305 298 299 312 316 321 321 322 322 322 322 322 319 317 315 312 300 306 305 305 298 292